Location: Rottenacker
(48.2350°N, 9.6886°E)
Time: 08:50:18
(UTC+02:00)

ISS - Visible Passes

Search period start: 28 May 2017 00:00
Search period end: 07 June 2017 00:00
Orbit: 402 x 408 km, 51.6° (Epoch: 28 May)

Date Brightness Start Highest point End Pass type
(mag) Time Alt. Az. Time Alt. Az. Time Alt. Az.
28 May -2.6 00:06:26 10° WNW 00:09:38 44° N 00:12:48 10° ENE visible
28 May -3.6 01:43:06 10° WNW 01:46:24 71° NNE 01:47:25 40° E visible
28 May -1.3 03:19:52 10° W 03:19:57 11° W 03:19:57 11° W visible
28 May -2.7 23:14:16 10° W 23:17:29 47° N 23:20:42 10° ENE visible
29 May -3.1 00:51:03 10° WNW 00:54:19 55° NNE 00:56:01 24° E visible
29 May -1.8 02:27:38 10° WNW 02:28:37 18° W 02:28:37 18° W visible
29 May -3.0 22:22:05 10° W 22:25:21 55° NNW 22:28:36 10° ENE visible
29 May -2.8 23:58:57 10° WNW 00:02:10 46° N 00:05:09 11° E visible
30 May -2.9 01:35:31 10° WNW 01:37:45 39° W 01:37:45 39° W visible
30 May -2.6 23:06:49 10° WNW 23:10:00 44° N 23:13:11 10° ENE visible
31 May -3.8 00:43:26 10° WNW 00:46:44 81° NNE 00:47:05 68° E visible
31 May -2.7 22:14:36 10° W 22:17:49 45° N 22:21:01 10° ENE visible
31 May -3.3 23:51:21 10° WNW 23:54:37 60° NNE 23:56:30 23° E visible
01 Jun -1.8 01:27:58 10° WNW 01:29:07 19° W 01:29:07 19° W visible
01 Jun -2.9 22:59:14 10° WNW 23:02:27 49° N 23:05:41 10° E visible
02 Jun -3.5 00:35:47 10° WNW 00:38:36 52° WSW 00:38:36 52° WSW visible
02 Jun -2.7 22:07:04 10° WNW 22:10:15 44° N 22:13:27 10° ENE visible
02 Jun -3.9 23:43:39 10° WNW 23:46:58 89° SSW 23:48:06 38° ESE visible
03 Jun -1.1 01:20:42 10° W 01:20:44 10° W 01:20:44 10° W visible
03 Jun -3.5 22:51:31 10° WNW 22:54:49 66° NNE 22:57:39 13° E visible
04 Jun -2.4 00:28:13 10° W 00:30:17 26° WSW 00:30:17 26° WSW visible
04 Jun -3.1 21:59:23 10° WNW 22:02:38 52° NNE 22:05:52 10° E visible
04 Jun -3.5 23:35:56 10° WNW 23:39:09 49° SSW 23:39:51 40° S visible
05 Jun -3.9 22:43:45 10° WNW 22:47:03 77° SSW 22:49:26 17° ESE visible
06 Jun -1.5 00:21:02 10° W 00:22:05 14° WSW 00:22:05 14° WSW visible
06 Jun -3.6 21:51:35 10° WNW 21:54:54 74° NNE 21:58:11 10° ESE visible
06 Jun -2.5 23:28:22 10° W 23:31:10 25° SW 23:31:42 24° SSW visible
